Weather History for Thedford, NE

Change the Weather History Date:

Wednesday, March 12, 2014

  Actual Average (KLBF) Record (KLBF)
Temperature  
Mean Temperature 42 °F 37 °F  
Max Temperature 55 °F 51 °F 78 °F (1916)
Min Temperature 30 °F 22 °F -7 °F (1880)
Degree Days  
Heating Degree Days 22 28  
Month to date heating degree days 358  
Since 1 July heating degree days 5386  
Cooling Degree Days 0 0  
Month to date cooling degree days 0  
Year to date cooling degree days 0  
Moisture  
Dew Point 22 °F    
Average Humidity 53    
Maximum Humidity 88    
Minimum Humidity 19    
Precipitation  
Precipitation 0.00 in 0.03 in 0.93 in (1961)
Month to date precipitation 0.34  
Year to date precipitation 1.18  
Snow  
Snow 0.00 in 0.20 in 4.30 in (1952)
Month to date snowfall 1.9  
Since 1 July snowfall 22.8  
Snow Depth -    
Sea Level Pressure  
Sea Level Pressure 30.16 in    
Wind  
Wind Speed 11 mph (WNW)    
Max Wind Speed 21 mph    
Max Gust Speed 29 mph    
Visibility 10 miles    
Events      
T = Trace of Precipitation, MM = Missing Value Source: NWS Daily Summary

Daily Weather History Graph

Daily Weather History Graph

Search for Another Location

Airport:

Trip Planner

Search our weather history database for the weather conditions in past years. The results will help you decide how hot, cold, wet, or windy it might be!

Date:

Astronomy

Mar. 12, 2014 Rise Set
Actual Time 7:59 AM CDT 7:45 PM CDT
Civil Twilight 7:31 AM CDT 8:13 PM CDT
Nautical Twilight 6:59 AM CDT 8:45 PM CDT
Astronomical Twilight 6:26 AM CDT 9:18 PM CDT
Moon 4:15 PM CDT (3/12) 5:34 AM CDT (3/12)
Length of Visible Light 12h 41m
Length of Day
11h 46m
Waxing Gibbous, 85% of the Moon is Illuminated
Mar 12
Waxing Gibbous
Mar 16
Full
Mar 23
Last Quarter
Mar 30
New
Apr 7
First Quarter

Hourly Weather History & Observations

Time (CDT) Temp. Windchill Dew Point Humidity Pressure Visibility Wind Dir Wind Speed Gust Speed Precip Events Conditions
12:15 AM 34.9 °F 27.1 °F 28.8 °F 78% 30.22 in 10.0 mi NW 10.4 mph - N/A   Mostly Cloudy
12:35 AM 33.8 °F 26.4 °F 28.8 °F 82% 30.22 in 10.0 mi NW 9.2 mph - N/A   Clear
12:55 AM 32.7 °F 26.4 °F 28.0 °F 83% 30.21 in 10.0 mi WNW 6.9 mph - N/A   Clear
1:15 AM 32.0 °F 25.6 °F 27.9 °F 85% 30.21 in 10.0 mi WNW 6.9 mph - N/A   Clear
1:35 AM 31.3 °F 24.7 °F 27.7 °F 87% 30.21 in 10.0 mi West 6.9 mph - N/A   Clear
1:55 AM 31.5 °F 23.5 °F 28.4 °F 88% 30.21 in 10.0 mi WNW 9.2 mph - N/A   Scattered Clouds
2:15 AM 32.4 °F 24.0 °F 28.4 °F 85% 30.21 in 10.0 mi WNW 10.4 mph - N/A   Mostly Cloudy
2:35 AM 33.4 °F 25.9 °F 27.9 °F 80% 30.21 in 10.0 mi WNW 9.2 mph - N/A   Overcast
2:55 AM 32.2 °F 24.4 °F 26.6 °F 80% 30.21 in 10.0 mi WNW 9.2 mph 16.1 mph N/A   Mostly Cloudy
3:15 AM 31.8 °F 23.3 °F 26.2 °F 80% 30.21 in 10.0 mi WNW 10.4 mph - N/A   Mostly Cloudy
3:35 AM 31.8 °F 23.9 °F 26.2 °F 80% 30.20 in 10.0 mi WNW 9.2 mph - N/A   Mostly Cloudy
3:55 AM 32.0 °F 23.6 °F 26.2 °F 79% 30.20 in 10.0 mi WNW 10.4 mph - N/A   Overcast
4:15 AM 31.5 °F 23.5 °F 25.5 °F 79% 30.20 in 10.0 mi WNW 9.2 mph - N/A   Scattered Clouds
4:35 AM 31.8 °F 22.8 °F 24.8 °F 75% 30.19 in 10.0 mi WNW 11.5 mph - N/A   Clear
4:55 AM 31.6 °F 23.1 °F 24.3 °F 74% 30.19 in 10.0 mi WNW 10.4 mph - N/A   Clear
5:15 AM 31.5 °F 22.9 °F 23.9 °F 74% 30.19 in 10.0 mi WNW 10.4 mph - N/A   Clear
5:35 AM 30.9 °F 22.2 °F 23.9 °F 75% 30.20 in 10.0 mi WNW 10.4 mph - N/A   Clear
5:55 AM 30.9 °F 22.8 °F 24.1 °F 76% 30.20 in 10.0 mi WNW 9.2 mph - N/A   Clear
6:15 AM 31.1 °F 23.7 °F 24.4 °F 76% 30.20 in 10.0 mi WNW 8.1 mph - N/A   Clear
6:35 AM 30.9 °F 22.2 °F 24.4 °F 77% 30.20 in 10.0 mi West 10.4 mph - N/A   Clear
6:55 AM 30.6 °F 22.4 °F 24.8 °F 79% 30.21 in 10.0 mi WNW 9.2 mph - N/A   Clear
7:15 AM 30.2 °F 21.9 °F 24.8 °F 80% 30.20 in 10.0 mi West 9.2 mph - N/A   Clear
7:35 AM 30.7 °F 22.0 °F 25.3 °F 80% 30.20 in 10.0 mi West 10.4 mph - N/A   Clear
7:55 AM 31.3 °F 23.9 °F 25.5 °F 79% 30.20 in 10.0 mi WNW 8.1 mph - N/A   Clear
8:15 AM 31.5 °F 22.9 °F 25.5 °F 79% 30.21 in 10.0 mi WNW 10.4 mph - N/A   Clear
8:35 AM 32.0 °F 23.6 °F 25.7 °F 78% 30.21 in 10.0 mi WNW 10.4 mph - N/A   Clear
8:55 AM 33.3 °F 25.1 °F 26.1 °F 75% 30.21 in 10.0 mi WNW 10.4 mph - N/A   Clear
9:15 AM 34.9 °F 26.2 °F 25.7 °F 69% 30.21 in 10.0 mi WNW 12.7 mph 17.3 mph N/A   Clear
9:35 AM 36.7 °F 28.0 °F 25.5 °F 64% 30.21 in 10.0 mi WNW 13.8 mph 18.4 mph N/A   Clear
9:55 AM 38.7 °F 30.5 °F 24.8 °F 58% 30.22 in 10.0 mi WNW 13.8 mph 19.6 mph N/A   Clear
10:15 AM 41.0 °F 32.5 °F 22.6 °F 48% 30.22 in 10.0 mi WNW 17.3 mph 24.2 mph N/A   Clear
10:35 AM 42.6 °F 34.3 °F 21.9 °F 44% 30.22 in 10.0 mi WNW 18.4 mph 25.3 mph N/A   Clear
10:55 AM 43.7 °F 36.0 °F 21.4 °F 41% 30.21 in 10.0 mi WNW 17.3 mph 23.0 mph N/A   Clear
11:15 AM 45.5 °F 38.3 °F 19.8 °F 36% 30.21 in 10.0 mi NW 17.3 mph 25.3 mph N/A   Clear
11:35 AM 46.9 °F - 18.0 °F 32% 30.21 in 10.0 mi WNW 18.4 mph 26.5 mph N/A   Clear
11:55 AM 48.6 °F - 18.5 °F 30% 30.20 in 10.0 mi WNW 17.3 mph 26.5 mph N/A   Clear
12:15 PM 48.9 °F - 16.9 °F 28% 30.20 in 10.0 mi WNW 20.7 mph 26.5 mph N/A   Clear
12:35 PM 50.4 °F - 13.6 °F 23% 30.19 in 10.0 mi WNW 18.4 mph 28.8 mph N/A   Clear
12:55 PM 51.1 °F - 13.3 °F 22% 30.19 in 10.0 mi WNW 18.4 mph 26.5 mph N/A   Clear
1:15 PM 52.0 °F - 12.6 °F 21% 30.17 in 10.0 mi WNW 18.4 mph 24.2 mph N/A   Clear
1:35 PM 52.0 °F - 11.3 °F 20% 30.16 in 10.0 mi WNW 15.0 mph 24.2 mph N/A   Clear
1:55 PM 52.7 °F - 11.1 °F 19% 30.16 in 10.0 mi WNW 17.3 mph 26.5 mph N/A   Clear
2:15 PM 53.2 °F - 13.6 °F 21% 30.14 in 10.0 mi NW 19.6 mph 26.5 mph N/A   Clear
2:35 PM 53.6 °F - 14.9 °F 22% 30.14 in 10.0 mi WNW 19.6 mph 27.6 mph N/A   Clear
2:55 PM 53.8 °F - 15.6 °F 22% 30.14 in 10.0 mi NW 19.6 mph 26.5 mph N/A   Clear
3:15 PM 54.3 °F - 17.1 °F 23% 30.13 in 10.0 mi NW 18.4 mph 27.6 mph N/A   Clear
3:35 PM 54.0 °F - 18.1 °F 25% 30.12 in 10.0 mi NW 19.6 mph 26.5 mph N/A   Clear
3:55 PM 54.5 °F - 18.7 °F 25% 30.11 in 10.0 mi NW 20.7 mph 26.5 mph N/A   Clear
4:15 PM 54.7 °F - 18.9 °F 25% 30.10 in 10.0 mi WNW 16.1 mph 26.5 mph N/A   Clear
4:35 PM 54.7 °F - 18.3 °F 24% 30.10 in 10.0 mi NW 16.1 mph 25.3 mph N/A   Clear
4:55 PM 54.3 °F - 18.9 °F 25% 30.10 in 10.0 mi NW 16.1 mph 24.2 mph N/A   Clear
5:15 PM 54.9 °F - 17.6 °F 23% 30.10 in 10.0 mi NW 15.0 mph 25.3 mph N/A   Clear
5:35 PM 55.2 °F - 17.6 °F 23% 30.09 in 10.0 mi NW 16.1 mph 27.6 mph N/A   Clear
5:55 PM 54.5 °F - 18.3 °F 24% 30.09 in 10.0 mi NW 13.8 mph 25.3 mph N/A   Clear
6:15 PM 54.5 °F - 18.3 °F 24% 30.08 in 10.0 mi WNW 13.8 mph 21.9 mph N/A   Clear
6:35 PM 53.6 °F - 17.6 °F 24% 30.09 in 10.0 mi NW 15.0 mph 21.9 mph N/A   Clear
6:55 PM 52.7 °F - 18.1 °F 26% 30.09 in 10.0 mi NW 13.8 mph 20.7 mph N/A   Clear
7:15 PM 51.8 °F - 18.7 °F 27% 30.09 in 10.0 mi NW 10.4 mph 20.7 mph N/A   Clear
7:35 PM 49.8 °F - 19.4 °F 30% 30.09 in 10.0 mi NW 8.1 mph - N/A   Clear
7:55 PM 46.9 °F - 20.1 °F 35% 30.09 in 10.0 mi WNW 5.8 mph - N/A   Clear
8:15 PM 43.3 °F 39.9 °F 21.7 °F 42% 30.10 in 10.0 mi WNW 5.8 mph - N/A   Clear
8:35 PM 42.6 °F 39.0 °F 21.9 °F 44% 30.09 in 10.0 mi WNW 5.8 mph - N/A   Clear
8:55 PM 42.1 °F 37.1 °F 22.6 °F 46% 30.10 in 10.0 mi WNW 8.1 mph - N/A   Clear
9:15 PM 41.2 °F 36.6 °F 22.8 °F 48% 30.10 in 10.0 mi West 6.9 mph - N/A   Clear
9:35 PM 40.5 °F 36.5 °F 23.0 °F 50% 30.10 in 10.0 mi West 5.8 mph - N/A   Clear
9:55 PM 37.6 °F 32.3 °F 23.0 °F 56% 30.10 in 10.0 mi WNW 6.9 mph - N/A   Clear
10:15 PM 36.7 °F 32.9 °F 23.9 °F 60% 30.10 in 10.0 mi WNW 4.6 mph - N/A   Clear
10:35 PM 36.3 °F 33.7 °F 23.9 °F 61% 30.10 in 10.0 mi WNW 3.5 mph - N/A   Clear
10:55 PM 36.7 °F 31.2 °F 24.8 °F 62% 30.10 in 10.0 mi West 6.9 mph - N/A   Clear
11:15 PM 36.5 °F 33.9 °F 24.6 °F 62% 30.10 in 10.0 mi West 3.5 mph - N/A   Clear
11:35 PM 34.5 °F 30.4 °F 24.4 °F 67% 30.10 in 10.0 mi WNW 4.6 mph - N/A   Clear
11:55 PM 35.8 °F 30.9 °F 24.8 °F 64% 30.10 in 10.0 mi West 5.8 mph - N/A   Clear